TITAN 3C TRANSTAGE DEB, 5986

Orbit data source: Space-Track

TITAN 3C TRANSTAGE DEB, 5986 is space debris in HEO originally from a launch on Tue, 21 Dec 1965 UTC launched from the Air Force Eastern Test Range (AFETR). Debris objects in space refer to the collection of defunct objects orbiting the Earth. Examples of debris include non-operational satellites, rocket bodies, and fragments generated from explosions, collisions, or faulty payload assembly.

Loading next visibility...
Identifier
5986, 1965-108Q
Orbit
HEO
Country
Flag of USUS
Related business
Manufacturer
Unknown
Mission
Spacecraft
Bus & Motor
Unknown
Mass
Unknown
Launch date (UTC)
1965-12-21 (60 years ago)
Launch vehicle
Unknown
Launch site
Air Force Eastern Test Range (AFETR)
Object type
Payload
Rocket body
Debris
Shape & HBR
Unknown shape, 0.2 m
Radar Cross Section
Medium (>0.1 m² and <1 m²)

Expand to show TLE details & history
Last TLE update: 2 days ago

TLE from 2 days ago
0 TITAN 3C TRANSTAGE DEB
1 05986U 65108Q   26035.46856199  .00002337  00000-0  27841-2 0  9991
2 05986  26.5706 107.8403 6160573  93.3398 334.1018  3.70166407292009
Epoch: 2026-02-04T11:14Z
TLE epoch observation values (Epoch: 2026-02-04T11:14:43.755Z)
Latitude
-0.00003°
Longitude
164.56515°
Altitude
4,969.216 km
Speed
6.905 km/s
True Right ascension
07h 11m 31s
True Declination
0° 00' 00"
Sunlit
Object was in full shadow at epoch
Visualization orbit readout
Latitude
Unknown
Longitude
Unknown
Altitude
Unknown
Speed
Unknown
Apparent Right ascension
Unknown
Apparent Declination
Unknown
Sunlit
N/A
Visualization observer readout
Local Sidereal Time
04:20:36
Azimuth
Unknown
Elevation
Unknown
Doppler factor
Unknown
Orbital elements
Apogee altitude
22,154.95 km
Perigee altitude
400.75 km
Semi-major axis
17,655.987 km
Eccentricity
0.61606
Inclination
26.5706°
RAAN
107.8403°
Arg. of periapsis
93.3398°
True anomaly
266.58845°
Mean anomaly
334.1018°
Eccentric anomaly
305.29099°
Mean motion
0.92514 °/min
Orbital period
389.13 mins
BSTAR
0.0027841
Loading maneuver chart data...
Computing Atmospheric mass density...

Documentation

Showing up to 5 results
|